Theta_e
333 331 323 321 309 307 304 305 312 316 317 322 323 323 323 324 321 319 339 343 343 344 350 355 357 356 356 355 354 352 352 354 354 355 354 353 351 350 348 345 341 339 337 336 337 336 336 336 336
332 326 321 316 304 301 303 310 310 317 320 324 324 325 322 321 329 329 333 343 345 347 351 347 356 355 355 355 353 353 353 352 352 352 352 351 350 349 346 344 341 339 339 338 339 338 337 337 338
331 319 313 309 304 301 305 309 314 315 320 322 322 325 325 324 331 331 339 344 346 349 351 348 356 354 355 354 353 352 352 352 352 352 351 350 349 347 346 344 344 340 340 340 339 338 340 341 341
321 317 314 305 303 306 308 314 315 317 319 323 323 319 324 331 332 335 342 342 345 348 350 351 355 354 354 354 353 352 352 351 351 351 350 349 348 347 346 345 344 344 341 341 340 342 342 342 343
322 315 304 303 304 308 311 313 316 316 316 319 322 319 322 332 337 338 342 341 342 345 349 349 355 354 355 355 354 352 351 351 350 350 349 348 348 347 346 345 344 345 343 342 342 343 343 344 345
311 312 302 300 304 308 311 313 313 314 316 318 319 321 324 335 337 338 341 342 342 344 349 348 356 355 355 354 353 352 351 350 350 350 349 349 348 347 346 346 345 346 347 345 344 344 345 345 346
310 304 301 302 303 304 308 313 311 313 315 319 324 320 326 330 337 340 342 345 345 348 349 349 353 355 355 354 353 352 351 350 349 349 349 349 348 347 347 346 346 347 347 348 348 347 346 345 344
315 311 305 305 302 303 310 313 314 313 314 324 326 321 323 331 337 343 342 344 346 348 347 350 352 349 349 349 354 353 352 351 350 350 349 348 349 348 347 346 346 347 347 348 348 348 347 347 345
317 307 304 304 304 304 309 310 315 318 319 322 323 324 326 330 338 340 339 339 340 342 348 350 348 350 349 346 347 353 353 352 351 350 350 348 342 343 343 342 345 347 348 348 348 348 348 348 346
312 307 307 311 310 305 307 310 313 314 315 320 321 324 325 327 334 335 336 335 337 340 345 348 351 350 350 345 348 351 347 349 346 343 344 344 342 343 340 342 347 348 349 348 348 348 348 348 344
314 307 312 313 312 309 307 310 314 312 312 320 321 322 324 324 326 328 332 334 336 339 340 346 352 354 351 349 346 347 348 346 346 346 350 348 341 343 341 339 342 343 347 344 346 347 347 345 343
308 313 313 314 314 309 307 310 311 312 313 320 321 322 322 324 325 326 327 329 331 332 333 339 350 353 355 350 348 349 347 347 346 346 353 349 345 345 343 338 340 341 340 342 344 343 347 346 345
307 309 313 314 314 314 312 310 311 313 317 319 319 320 322 324 326 327 329 330 331 332 334 336 342 354 356 356 351 352 352 348 349 348 350 346 343 346 343 343 339 340 340 340 341 343 345 345 345
308 308 309 312 313 314 311 313 315 316 320 320 322 323 324 323 324 326 327 329 330 332 334 338 339 350 354 356 357 354 354 351 350 348 347 351 346 348 341 341 340 338 339 340 340 341 343 343 343
305 302 306 308 310 311 313 309 311 317 319 319 320 322 322 324 325 325 327 329 332 333 336 339 342 344 351 352 353 354 350 350 347 348 351 349 350 350 348 340 340 338 342 341 340 341 344 342 342
300 301 297 305 308 309 309 303 313 317 317 317 318 320 320 323 324 326 327 330 333 335 336 339 336 335 344 351 349 347 346 347 348 347 349 349 350 349 347 342 339 339 341 339 338 338 336 339 339
299 294 297 300 307 307 305 303 311 315 315 315 317 318 319 321 323 326 327 329 331 334 337 337 340 338 341 348 346 350 353 349 347 348 348 350 349 349 346 343 340 346 338 337 336 336 337 337 344
292 295 297 297 303 305 304 303 308 312 313 313 315 317 318 319 321 324 326 328 330 332 337 339 340 348 345 341 345 345 346 348 348 347 348 350 349 348 347 344 344 343 338 336 336 337 338 343 341
295 295 296 300 303 302 302 303 306 310 311 312 313 315 316 317 321 323 324 326 328 331 338 342 342 350 342 336 338 341 341 345 346 348 350 349 349 348 346 345 343 343 338 337 339 338 343 341 339
294 293 294 299 301 301 301 301 306 308 309 311 312 314 315 317 318 320 322 325 327 332 337 343 344 347 343 338 343 342 344 345 347 347 349 349 348 348 344 347 344 343 339 339 339 344 338 337 339
292 291 292 294 299 301 300 298 302 307 309 311 312 313 314 315 315 318 319 323 325 329 336 338 342 343 344 344 344 347 348 346 341 343 345 346 347 345 344 346 346 344 341 338 343 342 341 333 337
288 294 293 293 294 290 300 290 299 303 305 307 309 311 313 314 316 317 318 320 324 325 328 335 340 339 340 346 349 351 343 339 341 345 344 342 344 345 348 348 346 345 342 345 343 342 340 339 332
291 295 293 294 292 293 294 291 297 303 301 305 308 310 312 313 315 315 317 319 321 323 324 331 335 337 342 346 349 346 347 344 346 346 342 343 345 346 347 348 347 346 344 345 343 343 343 339 335
296 293 293 293 292 286 292 292 293 297 301 304 308 309 311 312 313 315 318 319 320 322 324 327 332 340 344 347 348 349 349 348 345 346 342 343 345 347 348 347 347 347 345 345 344 343 342 339 334
293 289 283 282 283 283 293 291 294 301 303 304 305 307 310 313 314 315 317 318 321 323 327 334 339 343 346 346 347 349 350 350 350 348 346 345 343 344 347 348 346 344 345 344 343 342 339 337 334
290 289 283 277 281 284 291 287 293 302 305 306 307 309 311 313 317 319 321 321 320 322 331 338 341 344 346 347 348 350 351 349 349 350 347 344 343 341 347 346 347 345 343 342 342 339 336 337 336
291 286 293 285 287 285 289 293 298 302 303 305 306 307 312 316 320 325 326 327 327 331 337 341 344 345 346 348 348 350 350 350 347 349 347 341 344 343 345 345 344 343 342 340 340 335 336 337 338
293 295 286 287 279 279 287 289 290 297 299 302 305 307 310 315 323 326 327 331 333 336 340 344 345 346 346 347 347 346 347 347 347 345 342 343 344 343 344 343 342 339 339 339 339 338 338 337 338
291 289 290 289 288 281 283 289 300 301 303 304 305 308 310 318 326 328 330 330 333 341 343 345 345 345 345 345 345 345 344 343 342 342 343 343 343 342 339 337 336 336 337 339 339 338 336 335 332
293 289 288 285 284 288 286 289 303 304 305 305 306 307 310 318 326 325 327 331 338 340 342 343 344 343 344 344 342 341 341 342 342 341 342 342 339 337 336 335 335 335 335 338 337 333 333 332 326
Wind_Speed
11 9 5 6 8 8 13 7 9 8 9 2 3 6 14 10 16 0 5 13 13 20 21 24 23 22 20 18 18 17 16 16 16 16 16 16 15 14 14 13 11 11 11 11 10 9 9 7 6
9 6 6 4 10 11 11 12 11 9 4 2 6 8 11 8 8 2 10 13 16 18 19 23 23 23 21 19 18 18 17 16 17 16 16 16 16 15 15 15 15 13 12 11 10 9 8 7 6
9 8 7 7 12 14 10 9 11 2 3 4 6 7 6 10 6 2 12 16 16 17 19 20 25 24 23 21 19 17 17 16 17 16 15 16 16 16 15 15 15 15 14 12 11 10 8 7 6
7 7 6 12 17 17 15 4 7 3 2 4 3 6 4 3 2 7 15 16 16 17 19 20 24 21 21 20 19 18 17 16 15 16 17 16 15 14 14 14 14 14 15 14 12 10 9 8 6
7 5 11 16 22 19 12 14 8 9 5 7 6 8 5 7 5 10 18 15 15 15 16 17 18 19 20 20 19 19 18 17 16 16 16 15 15 15 14 14 13 13 14 14 13 11 9 8 6
7 6 13 18 20 17 16 14 13 14 12 11 9 14 8 6 10 14 16 14 12 13 12 14 19 18 18 19 18 17 17 18 17 17 16 16 16 15 15 14 13 13 12 13 13 12 10 8 6
14 11 17 19 16 16 17 14 15 15 14 12 8 16 5 8 8 11 12 12 11 11 11 11 16 17 15 17 18 18 17 17 17 16 16 16 15 15 15 14 14 13 13 12 11 10 10 8 7
11 12 22 20 17 22 13 10 16 13 18 2 4 9 10 6 4 10 12 11 11 10 11 11 11 15 16 16 15 17 18 18 18 18 17 16 15 16 15 14 13 14 13 12 11 10 10 9 8
14 12 17 22 19 13 6 16 18 7 12 9 2 1 7 1 8 10 11 12 11 9 10 10 12 13 14 15 15 15 17 18 17 17 17 15 13 16 17 16 15 15 14 14 13 12 11 10 10
16 17 25 20 14 8 17 16 13 7 16 14 11 7 5 5 6 11 12 13 14 13 10 9 10 12 13 11 13 14 15 15 16 17 18 15 16 14 15 16 14 17 15 14 13 13 12 11 9
22 26 21 22 14 11 18 18 12 13 18 16 16 10 5 4 2 5 10 11 8 7 7 10 11 12 14 12 10 8 9 10 12 18 15 15 13 12 12 10 11 11 15 11 13 12 10 12 7
27 25 25 26 16 13 21 20 23 21 20 18 6 7 11 13 10 8 8 9 11 9 4 8 12 12 14 10 10 11 10 11 11 14 16 12 10 11 11 10 12 11 10 11 9 8 9 9 8
30 28 24 23 23 19 18 25 23 23 20 21 20 17 19 16 17 13 12 12 12 11 9 7 8 12 11 13 10 11 11 11 12 12 15 14 14 11 12 11 11 11 11 10 10 9 8 9 9
16 24 29 28 23 20 25 27 23 25 20 23 22 23 22 19 16 13 12 13 12 13 13 10 9 10 11 12 12 11 11 12 12 12 13 17 14 11 13 12 12 11 10 10 10 9 9 9 9
23 26 25 23 25 29 19 28 38 29 24 23 21 21 22 21 19 17 16 15 16 14 13 13 10 9 11 12 13 11 11 11 12 12 14 16 16 13 13 12 12 12 10 11 9 8 9 8 8
17 22 26 31 25 20 22 33 37 27 27 26 27 24 23 22 22 19 17 15 13 15 12 12 11 11 11 11 11 10 10 10 10 11 11 16 16 16 14 11 12 11 9 10 9 9 8 8 9
20 25 30 26 28 24 21 34 36 31 28 25 23 23 22 22 20 14 13 15 14 13 12 14 13 14 13 11 11 11 11 10 10 10 10 14 15 16 13 12 11 10 10 10 8 7 9 9 4
24 25 25 27 22 27 30 35 29 25 17 17 22 24 24 23 20 17 15 14 15 13 12 14 13 12 10 9 9 9 9 10 9 10 10 12 12 15 14 11 11 10 10 9 9 11 8 6 7
25 29 24 20 20 26 25 31 32 27 30 30 26 22 22 22 21 19 17 16 15 15 15 15 14 11 9 9 9 9 10 9 9 8 10 12 12 15 14 10 10 11 10 10 11 10 9 6 6
21 24 29 23 13 19 23 31 30 27 28 28 27 25 24 22 22 20 20 17 17 16 15 15 14 11 10 9 8 7 7 8 7 6 9 12 13 13 12 10 11 12 10 12 11 11 6 6 4
22 25 24 27 21 20 21 28 28 26 23 22 22 23 24 25 23 22 22 21 19 18 15 14 12 12 12 12 8 7 6 5 6 10 9 9 9 10 12 13 10 12 10 10 11 10 10 6 6
21 20 25 24 23 24 20 22 23 24 28 29 28 26 26 24 25 24 23 23 20 19 17 15 13 12 11 13 11 12 10 8 7 9 9 8 11 13 14 13 11 11 10 10 9 8 7 7 5
21 19 21 21 23 24 29 21 20 18 22 22 20 22 23 22 24 23 21 20 18 16 17 15 12 13 12 12 12 11 10 7 9 9 14 11 10 12 13 12 12 11 9 9 10 8 9 5 7
20 22 20 22 20 22 24 22 19 20 24 22 19 20 20 21 20 14 15 15 16 13 12 11 13 12 11 12 13 13 11 9 10 13 12 11 10 10 12 13 11 10 8 8 7 8 7 8 5
18 17 13 16 20 21 23 21 18 6 8 4 6 7 11 11 13 13 12 12 13 12 11 9 10 10 11 13 13 12 11 11 14 15 12 14 11 10 12 12 10 9 8 7 7 7 7 7 7
19 19 14 20 16 20 28 27 21 22 25 20 17 9 8 9 10 11 13 9 11 10 9 9 11 11 13 13 13 12 13 10 11 11 12 10 10 10 12 10 9 8 9 7 7 7 6 7 7
19 19 19 24 21 18 17 26 27 21 13 8 8 4 6 11 12 13 11 7 8 8 9 11 12 13 14 14 13 14 12 13 12 13 10 9 9 9 10 10 9 8 8 7 7 6 7 7 8
16 15 13 13 10 18 15 20 15 25 23 17 4 5 10 13 13 10 5 3 5 6 10 12 14 15 15 15 14 13 14 14 13 12 11 11 10 10 10 9 7 7 7 7 7 6 6 7 6
11 13 15 7 15 14 11 14 19 9 13 9 6 10 14 14 12 9 7 1 6 11 13 14 15 17 16 15 15 14 14 14 13 12 11 11 10 10 9 8 8 7 7 6 6 5 6 9 5
5 10 6 9 12 16 14 5 12 18 13 6 9 13 15 15 13 6 2 4 11 13 15 15 15 16 16 15 15 15 14 13 13 12 11 10 10 9 9 8 7 7 6 6 6 6 7 7 10
Wind_Direction
224 228 236 225 233 241 236 219 248 179 193 136 289 195 210 191 178 141 103 146 149 158 161 170 173 177 177 180 174 175 174 170 170 170 169 167 166 168 166 164 168 165 161 158 155 151 146 142 139
182 191 216 246 249 222 222 211 206 206 90 227 205 220 219 206 218 48 142 147 149 155 165 175 177 178 177 179 179 176 179 179 178 176 173 173 172 174 173 167 169 169 168 168 162 157 153 149 148
181 220 246 231 233 244 233 170 209 187 262 248 186 222 182 245 219 256 103 151 151 163 170 179 179 178 177 177 181 180 182 185 184 181 181 181 178 179 177 175 174 173 171 172 169 166 164 163 167
188 192 233 245 235 227 256 83 139 191 157 195 198 201 186 248 266 193 145 154 158 169 178 171 180 178 176 178 180 183 186 190 190 186 188 184 184 186 184 182 179 177 176 177 177 174 179 186 186
220 247 240 233 243 244 244 258 248 258 276 256 232 236 220 173 179 153 157 163 168 171 183 171 173 181 180 179 184 185 187 190 193 195 192 187 189 188 189 188 188 187 185 183 180 184 188 201 208
218 272 237 237 239 244 249 250 259 254 258 262 248 234 220 122 175 166 162 166 173 170 181 170 175 185 184 179 185 189 192 191 195 197 195 190 192 191 191 191 192 195 196 194 192 192 196 205 221
234 215 245 256 259 266 257 273 249 258 262 255 234 210 172 180 144 165 162 162 172 174 183 182 181 187 187 184 185 189 194 200 193 198 200 194 193 195 194 193 196 199 201 206 205 202 203 205 214
232 255 250 246 244 249 247 248 240 253 246 60 224 214 182 115 163 169 175 173 181 180 184 189 197 191 199 194 194 194 194 200 198 198 200 197 196 200 200 199 201 203 207 210 213 212 213 215 216
234 242 245 244 240 245 263 247 250 246 266 201 169 23 62 30 178 180 185 190 194 191 188 197 194 204 205 207 196 199 203 204 202 200 200 193 206 201 203 205 195 206 207 210 214 216 218 218 222
219 228 242 249 260 227 248 256 267 244 228 224 212 168 139 86 171 198 199 203 206 201 201 208 211 208 211 216 215 208 212 212 212 209 205 206 209 209 209 202 207 198 207 212 215 216 218 220 228
223 241 245 250 250 252 256 256 247 248 250 216 217 197 201 306 229 227 222 245 204 217 222 206 206 213 212 211 214 217 214 215 216 217 209 204 207 209 203 206 197 206 205 209 204 205 220 221 242
240 245 244 259 246 244 248 262 258 253 250 250 229 225 273 287 284 276 263 231 237 242 252 243 207 208 214 221 213 223 224 220 217 211 206 210 207 206 210 211 200 204 200 217 215 218 223 226 228
237 240 246 244 255 245 257 250 252 251 249 255 256 258 259 264 271 269 271 270 276 272 283 238 232 206 213 217 230 227 229 224 226 217 205 211 209 208 204 210 213 203 207 198 211 220 217 219 231
241 243 249 255 243 244 246 255 253 246 249 259 261 259 260 259 258 258 260 264 264 266 268 263 243 211 209 224 226 235 230 236 225 226 218 207 214 207 206 209 210 214 210 207 212 211 218 220 232
256 262 261 245 248 243 246 262 251 250 244 254 258 259 259 258 258 255 257 246 250 262 257 262 248 236 226 232 236 234 243 227 235 221 217 210 211 215 211 211 214 217 210 216 212 214 218 229 230
256 251 249 238 233 239 234 254 251 246 241 239 250 255 258 259 259 259 257 253 248 240 252 248 261 256 241 247 244 241 237 232 227 226 213 211 208 218 201 214 216 216 208 203 207 213 217 229 236
238 246 239 250 235 223 215 247 253 257 265 252 248 259 260 262 260 253 250 256 252 248 242 248 250 262 267 248 247 237 236 227 222 216 208 200 206 205 213 213 215 201 212 206 203 209 227 229 258
238 241 246 258 253 221 228 242 249 261 254 247 252 252 257 258 261 264 261 261 261 260 250 250 259 261 240 249 237 238 227 221 218 210 206 194 199 198 202 213 210 191 206 197 200 218 214 241 239
267 270 270 263 271 254 244 244 251 245 251 257 258 254 258 265 272 277 275 272 260 259 252 251 251 244 226 220 225 220 218 209 207 203 193 190 195 194 199 204 185 196 200 197 202 204 210 222 229
265 261 258 259 277 271 242 251 251 247 250 253 255 255 264 267 267 269 267 264 262 260 254 250 245 239 223 220 228 241 220 204 195 186 175 195 193 188 189 188 184 190 186 196 198 198 200 218 188
253 255 258 255 253 236 253 254 253 252 255 256 260 259 261 265 268 268 268 266 263 258 250 246 240 226 221 230 210 201 174 141 161 187 181 184 171 168 180 187 184 177 196 182 192 197 204 216 213
267 259 254 258 251 245 230 259 248 241 244 244 249 251 256 261 262 264 264 263 260 261 256 252 239 235 221 208 205 199 189 174 182 172 163 155 164 172 181 176 176 178 194 169 189 198 212 227 222
262 262 256 247 251 250 241 254 261 256 255 257 257 255 255 262 258 259 263 265 266 260 255 245 241 236 225 200 209 188 207 170 162 162 135 155 165 169 167 167 169 177 197 176 195 186 210 200 243
260 256 246 248 250 238 237 239 252 252 256 254 254 254 248 251 260 262 271 270 251 247 240 235 226 218 197 187 191 191 183 161 150 135 151 153 160 161 166 170 172 175 189 179 189 207 206 226 234
235 242 239 225 224 243 237 234 239 268 109 335 231 288 267 254 263 268 270 264 232 227 221 215 203 186 173 173 173 179 163 163 149 156 153 150 156 160 161 167 170 178 188 186 190 206 205 202 218
222 234 237 243 235 230 225 236 226 234 263 272 250 257 279 279 296 286 285 261 252 220 202 199 179 163 162 156 154 151 151 153 147 148 137 147 158 155 155 167 174 178 183 189 195 196 208 196 207
226 248 263 269 286 279 231 209 248 255 231 234 212 279 335 325 322 303 283 257 235 188 172 186 161 151 151 141 138 141 141 142 122 127 143 146 132 128 152 159 167 175 187 188 183 219 200 204 207
255 227 248 238 265 258 239 197 219 208 216 252 109 3 348 344 342 320 297 254 208 163 174 153 150 145 137 135 134 133 129 124 129 135 133 137 128 136 151 156 163 170 177 186 202 207 219 214 207
273 239 208 214 290 285 244 206 205 201 101 102 55 10 5 357 3 346 2 141 161 171 139 140 136 135 134 131 125 127 125 129 133 133 134 134 136 144 150 152 158 169 181 192 215 222 225 213 157
169 247 346 270 232 248 275 325 104 116 132 82 16 8 359 2 23 359 23 149 169 137 135 134 136 132 128 128 124 124 129 131 134 134 131 138 138 147 146 153 166 174 187 198 227 225 215 184 167